Time,TemperatureF,DewpointF,PressureIn,WindDirection,WindDirectionDegrees,WindSpeedMPH,WindSpeedGustMPH,Humidity,HourlyPrecipIn,Conditions,Clouds,dailyrainin,SoftwareType,DateUTC
2013-05-09 00:02:00,55.0,-99.9,-100.00,WSW,242,0.0,1.0,-999,-99.99,,,-99.99,,2013-05-09 06:02:00,
2013-05-09 00:12:00,55.0,-99.9,-100.00,WSW,242,0.0,1.0,-999,-99.99,,,-99.99,,2013-05-09 06:12:00,
2013-05-09 00:22:00,55.0,-99.9,-100.00,WSW,242,0.0,1.0,-999,-99.99,,,-99.99,,2013-05-09 06:22:00,
2013-05-09 02:02:00,54.0,-99.9,-100.00,NNW,347,1.0,1.0,-999,-99.99,,,-99.99,,2013-05-09 08:02:00,
2013-05-09 02:11:00,54.0,-99.9,-100.00,NNW,347,1.0,1.0,-999,-99.99,,,-99.99,,2013-05-09 08:11:00,
2013-05-09 02:22:00,54.0,-99.9,-100.00,NNW,347,1.0,1.0,-999,-99.99,,,-99.99,,2013-05-09 08:22:00,
2013-05-09 03:02:00,54.0,-99.9,-100.00,NW,317,0.0,0.0,-999,-99.99,,,-99.99,,2013-05-09 09:02:00,
2013-05-09 03:12:00,54.0,-99.9,-100.00,NW,317,0.0,0.0,-999,-99.99,,,-99.99,,2013-05-09 09:12:00,
2013-05-09 03:22:00,54.0,-99.9,-100.00,NW,317,0.0,0.0,-999,-99.99,,,-99.99,,2013-05-09 09:22:00,
2013-05-09 03:32:00,51.0,-99.9,-100.00,NNE,15,0.0,5.0,-999,-99.99,,,-99.99,,2013-05-09 09:32:00,
2013-05-09 03:43:00,51.0,-99.9,-100.00,NNE,15,0.0,5.0,-999,-99.99,,,-99.99,,2013-05-09 09:43:00,
2013-05-09 03:53:00,50.0,-99.9,-100.00,NE,42,1.0,2.0,-999,-99.99,,,-99.99,,2013-05-09 09:53:00,
2013-05-09 04:02:00,50.0,-99.9,-100.00,NE,42,1.0,2.0,-999,-99.99,,,-99.99,,2013-05-09 10:02:00,
2013-05-09 04:30:00,50.0,-99.9,-100.00,NE,54,0.0,4.0,-999,-99.99,,,-99.99,,2013-05-09 10:30:00,
2013-05-09 04:33:00,51.0,-99.9,-100.00,NNE,17,1.0,2.0,-999,-99.99,,,-99.99,,2013-05-09 10:33:00,
2013-05-09 04:42:00,51.0,-99.9,-100.00,NNE,17,1.0,2.0,-999,-99.99,,,-99.99,,2013-05-09 10:42:00,
2013-05-09 04:53:00,51.0,-99.9,-100.00,NNE,17,1.0,2.0,-999,-99.99,,,-99.99,,2013-05-09 10:53:00,
2013-05-09 05:03:00,50.0,-99.9,-100.00,NE,54,0.0,4.0,-999,-99.99,,,-99.99,,2013-05-09 11:03:00,
2013-05-09 05:12:00,50.0,-99.9,-100.00,NE,54,0.0,4.0,-999,-99.99,,,-99.99,,2013-05-09 11:12:00,
2013-05-09 05:23:00,50.0,-99.9,-100.00,NE,54,0.0,4.0,-999,-99.99,,,-99.99,,2013-05-09 11:23:00,
2013-05-09 06:22:00,48.0,-99.9,-100.00,NNE,16,1.0,1.0,-999,-99.99,,,-99.99,,2013-05-09 12:22:00,
2013-05-09 06:32:00,48.0,-99.9,-100.00,NNE,16,1.0,1.0,-999,-99.99,,,-99.99,,2013-05-09 12:32:00,
2013-05-09 06:43:00,48.0,-99.9,-100.00,NNE,16,1.0,1.0,-999,-99.99,,,-99.99,,2013-05-09 12:43:00,
2013-05-09 07:02:00,51.0,-99.9,-100.00,SW,232,0.0,1.0,-999,-99.99,,,-99.99,,2013-05-09 13:02:00,
2013-05-09 07:12:00,51.0,-99.9,-100.00,SW,232,0.0,1.0,-999,-99.99,,,-99.99,,2013-05-09 13:12:00,
2013-05-09 07:22:00,49.0,-99.9,-100.00,West,280,0.0,5.0,-999,-99.99,,,-99.99,,2013-05-09 13:22:00,
2013-05-09 07:32:00,49.0,-99.9,-100.00,West,280,0.0,5.0,-999,-99.99,,,-99.99,,2013-05-09 13:32:00,
2013-05-09 08:02:00,56.0,-99.9,-100.00,NW,318,0.0,3.0,-999,-99.99,,,-99.99,,2013-05-09 14:02:00,
2013-05-09 08:11:00,56.0,-99.9,-100.00,NW,318,0.0,3.0,-999,-99.99,,,-99.99,,2013-05-09 14:11:00,
2013-05-09 08:22:00,56.0,-99.9,-100.00,NW,318,0.0,3.0,-999,-99.99,,,-99.99,,2013-05-09 14:22:00,
2013-05-09 09:20:00,68.0,-99.9,-100.00,ENE,78,4.0,6.0,-999,-99.99,,,-99.99,,2013-05-09 15:20:00,
2013-05-09 10:03:00,68.0,-99.9,-100.00,ENE,78,4.0,6.0,-999,-99.99,,,-99.99,,2013-05-09 16:03:00,
2013-05-09 10:12:00,68.0,-99.9,-100.00,ENE,78,4.0,6.0,-999,-99.99,,,-99.99,,2013-05-09 16:12:00,
2013-05-09 11:02:00,69.0,-99.9,-100.00,East,87,0.0,3.0,-999,-99.99,,,-99.99,,2013-05-09 17:02:00,
2013-05-09 11:12:00,69.0,-99.9,-100.00,East,87,0.0,3.0,-999,-99.99,,,-99.99,,2013-05-09 17:12:00,
2013-05-09 11:22:00,69.0,-99.9,-100.00,East,87,0.0,3.0,-999,-99.99,,,-99.99,,2013-05-09 17:22:00,
2013-05-09 13:30:00,73.0,-99.9,-100.00,NE,51,1.0,6.0,-999,-99.99,,,-99.99,,2013-05-09 19:30:00,
2013-05-09 14:22:00,73.0,-99.9,-100.00,NE,51,1.0,6.0,-999,-99.99,,,-99.99,,2013-05-09 20:22:00,
2013-05-09 16:30:00,76.0,-99.9,-100.00,ENE,70,8.0,8.0,-999,-99.99,,,-99.99,,2013-05-09 22:30:00,
2013-05-09 17:22:00,76.0,-99.9,-100.00,ENE,70,8.0,8.0,-999,-99.99,,,-99.99,,2013-05-09 23:22:00,
2013-05-09 18:22:00,77.0,-99.9,-100.00,ENE,72,3.0,6.0,-999,-99.99,,,-99.99,,2013-05-10 00:22:00,
2013-05-09 18:32:00,77.0,-99.9,-100.00,ENE,72,3.0,6.0,-999,-99.99,,,-99.99,,2013-05-10 00:32:00,
2013-05-09 20:21:00,73.0,-99.9,-100.00,NE,55,1.0,2.0,-999,-99.99,,,-99.99,,2013-05-10 02:21:00,
2013-05-09 20:32:00,73.0,-99.9,-100.00,NE,55,1.0,2.0,-999,-99.99,,,-99.99,,2013-05-10 02:32:00,
2013-05-09 21:20:00,68.0,-99.9,-100.00,SW,235,0.0,2.0,-999,-99.99,,,-99.99,,2013-05-10 03:20:00,
2013-05-09 22:00:00,64.0,-99.9,-100.00,NNW,328,0.0,2.0,-999,-99.99,,,-99.99,,2013-05-10 04:00:00,
2013-05-09 22:03:00,68.0,-99.9,-100.00,SW,235,0.0,2.0,-999,-99.99,,,-99.99,,2013-05-10 04:03:00,
2013-05-09 22:12:00,68.0,-99.9,-100.00,SW,235,0.0,2.0,-999,-99.99,,,-99.99,,2013-05-10 04:12:00,
2013-05-09 22:33:00,64.0,-99.9,-100.00,NNW,328,0.0,2.0,-999,-99.99,,,-99.99,,2013-05-10 04:33:00,
2013-05-09 22:43:00,64.0,-99.9,-100.00,NNW,328,0.0,2.0,-999,-99.99,,,-99.99,,2013-05-10 04:43:00,
2013-05-09 22:53:00,64.0,-99.9,-100.00,NNW,328,0.0,2.0,-999,-99.99,,,-99.99,,2013-05-10 04:53:00,
2013-05-09 23:32:00,65.0,-99.9,-100.00,East,90,0.0,3.0,-999,-99.99,,,-99.99,,2013-05-10 05:32:00,
2013-05-09 23:42:00,65.0,-99.9,-100.00,East,90,0.0,3.0,-999,-99.99,,,-99.99,,2013-05-10 05:42:00,